Humberborg — PHFC — position and weather

sailwx.info

Track history (hours):
 
Tides and Currents Weather Stations Pressure Air Temp Water Temp Dewpoint Dewpoint Depression Visibility Wind Speed Wind Dir Waves Ship Positions

Humberborg

Last reported at 2014-Oct-03 08:28 UTC. Time now 2014-Nov-01 09:46 UTC.
Position N 53°27' E 014°35'.
Warning: this ship's position is 29 days out of date.

Length 114 m.

Type: Cargo ship. MMSI: 246012000.

Date/timePositionNaut miles runAvg speedWind from/ knotsBaromVisibWave heightAir tempDewpointWater temp
2014-Oct-03 08:28N 53°27' E 014°35'0 0.0
2014-Oct-03 07:31N 53°27' E 014°35'0 0.0
2014-Oct-03 06:31N 53°27' E 014°35'0 0.0
2014-Oct-03 05:31N 53°27' E 014°35'0 0.0
2014-Oct-03 04:31N 53°27' E 014°35'0 0.0
2014-Oct-03 03:34N 53°27' E 014°35'0 0.0
2014-Oct-03 02:33N 53°27' E 014°36'0 0.0
2014-Oct-03 01:33N 53°27' E 014°36'0 0.0
2014-Oct-03 00:33N 53°27' E 014°35'0 0.0
2014-Oct-02 23:33N 53°27' E 014°35'0 0.0
2014-Oct-02 22:33N 53°27' E 014°35'0 0.0
2014-Oct-02 21:33N 53°27' E 014°35'0 0.0
2014-Oct-02 20:09N 53°27' E 014°35'0 0.0
2014-Oct-02 19:33N 53°27' E 014°35'0 0.0
2014-Oct-02 18:33N 53°27' E 014°35'0 0.0
2014-Oct-02 17:33N 53°27' E 014°36'0 0.0
2014-Oct-02 16:33N 53°27' E 014°35'0 0.0
2014-Oct-02 15:33N 53°27' E 014°36'0 0.0
2014-Oct-02 14:33N 53°27' E 014°35'0 0.0
2014-Oct-02 13:33N 53°27' E 014°35'0 0.1
2014-Oct-02 12:33N 53°27' E 014°35'0 0.1
2014-Oct-02 11:33N 53°27' E 014°35'0 0.0
2014-Oct-02 10:27N 53°27' E 014°35'0 0.0
2014-Oct-02 09:33N 53°27' E 014°35'0 0.0
2014-Oct-02 08:33N 53°27' E 014°35'0 0.0
2014-Oct-02 07:33N 53°27' E 014°35'0 0.0
2014-Oct-02 06:33N 53°27' E 014°35'0 0.0
2014-Oct-02 05:33N 53°27' E 014°35'0 0.0
2014-Oct-02 04:33N 53°27' E 014°35'0 0.0
2014-Oct-02 03:33N 53°27' E 014°35'0 0.0
2014-Oct-02 02:33N 53°27' E 014°35'0 0.0
2014-Oct-02 01:33N 53°27' E 014°35'0 0.0
2014-Oct-02 00:33N 53°27' E 014°35'0 0.0
2014-Oct-01 23:33N 53°27' E 014°35'0 0.0
2014-Oct-01 22:33N 53°27' E 014°35'0 0.0
2014-Oct-01 21:33N 53°27' E 014°35'0 0.0
2014-Oct-01 20:33N 53°27' E 014°35'0 0.0
2014-Oct-01 19:34N 53°27' E 014°35'1 0.5
2014-Oct-01 18:34N 53°26' E 014°35'7 6.6
2014-Oct-01 17:34N 53°33' E 014°37'1010.4
2014-Oct-01 16:33N 53°42' E 014°29'1110.9
2014-Oct-01 15:33N 53°51' E 014°17'8 8.1
2014-Oct-01 14:34N 53°59' E 014°16'1111.0
2014-Oct-01 13:32N 54°10' E 014°12'1111.0
2014-Oct-01 12:33N 54°18' E 014°01'1212.0
2014-Oct-01 11:34N 54°28' E 013°50'1211.9
2014-Oct-01 10:34N 54°39' E 013°39'1110.7
2014-Oct-01 09:34N 54°45' E 013°24'1110.8
2014-Oct-01 08:34N 54°44' E 013°06'1211.8
2014-Oct-01 07:33N 54°43' E 012°45'1211.4
2014-Oct-01 06:32N 54°37' E 012°29'1311.4
2014-Oct-01 05:26N 54°27' E 012°14'1112.0
2014-Oct-01 04:32N 54°18' E 012°05'9 9.0
2014-Oct-01 03:33N 54°09' E 012°06'1 0.6
2014-Oct-01 02:31N 54°09' E 012°07'0 0.0
2014-Oct-01 01:19N 54°09' E 012°07'0 0.0
2014-Oct-01 00:28N 54°09' E 012°07'0 0.0
2014-Sep-30 23:28N 54°09' E 012°07'0 0.0
2014-Sep-30 22:31N 54°09' E 012°07'0 0.0
2014-Sep-30 21:31N 54°09' E 012°07'0 0.0
2014-Sep-30 20:31N 54°09' E 012°07'0 0.0
2014-Sep-30 19:25N 54°09' E 012°07'0 0.0
2014-Sep-30 18:31N 54°09' E 012°07'0 0.0
2014-Sep-30 17:31N 54°09' E 012°07'0 0.0
2014-Sep-30 16:28N 54°09' E 012°07'0 0.0
2014-Sep-30 15:31N 54°09' E 012°07'0 0.0
2014-Sep-30 14:31N 54°09' E 012°07'0 0.0
2014-Sep-30 13:31N 54°09' E 012°07'0 0.0
2014-Sep-30 12:28N 54°09' E 012°07'0 0.0
2014-Sep-30 11:31N 54°09' E 012°07'0 0.0
2014-Sep-30 10:28N 54°09' E 012°07'0 0.0
2014-Sep-30 09:31N 54°09' E 012°07'0 0.0
2014-Sep-30 08:28N 54°09' E 012°07'0 0.0
2014-Sep-30 07:33N 54°09' E 012°07'0 0.0
2014-Sep-30 06:33N 54°09' E 012°07'1 0.6
2014-Sep-30 05:32N 54°10' E 012°06'7 6.6
2014-Sep-30 04:33N 54°16' E 012°02'7 7.1
2014-Sep-30 03:34N 54°22' E 012°07'9 8.9
2014-Sep-30 02:33N 54°30' E 012°12'1010.2
2014-Sep-30 01:34N 54°40' E 012°19'1010.2
2014-Sep-30 00:34N 54°48' E 012°29'1110.4
2014-Sep-29 23:33N 54°57' E 012°39'2210.4
2014-Sep-29 21:25N 55°19' E 012°37'910.6
2014-Sep-29 20:34N 55°28' E 012°41'1010.3
2014-Sep-29 19:34N 55°38' E 012°42'1110.7
2014-Sep-29 18:34N 55°49' E 012°42'1110.6
2014-Sep-29 17:34N 55°59' E 012°40'1111.0
2014-Sep-29 16:34N 56°08' E 012°28'1211.5
2014-Sep-29 15:33N 56°15' E 012°11'1110.6
2014-Sep-29 14:34N 56°24' E 012°01'1111.1
2014-Sep-29 13:34N 56°34' E 011°57'1211.5
2014-Sep-29 12:33N 56°46' E 011°52'1212.0
2014-Sep-29 11:33N 56°57' E 011°44'1311.5
2014-Sep-29 10:27N 57°09' E 011°37'1011.4
2014-Sep-29 09:33N 57°18' E 011°30'9 9.1
2014-Sep-29 08:34N 57°27' E 011°25'1211.7
2014-Sep-29 07:33N 57°35' E 011°09'1211.9
2014-Sep-29 06:33N 57°43' E 010°53'1111.0
2014-Sep-29 05:33N 57°48' E 010°34'1212.0
2014-Sep-29 04:34N 57°48' E 010°11'1211.6
2014-Sep-29 03:33N 57°49' E 009°50'1411.8
2014-Sep-29 02:21N 57°49' E 009°23'911.7
2014-Sep-29 01:34N 57°50' E 009°06'8411.3
2014-Sep-28 18:08N 58°04' E 006°29'711.6
2014-Sep-28 17:33N 58°08' E 006°19'2412.1
2014-Sep-28 15:34N 58°24' E 005°46'1211.9
2014-Sep-28 14:34N 58°33' E 005°31'1211.2
2014-Sep-28 13:27N 58°45' E 005°22'1011.1
2014-Sep-28 12:33N 58°55' E 005°20'1010.4
2014-Sep-28 11:33N 59°05' E 005°19'1010.2
2014-Sep-28 10:33N 59°12' E 005°34'1110.7
2014-Sep-28 09:34N 59°19' E 005°50'8 7.3
2014-Sep-28 08:30N 59°23' E 006°03'0 0.0
2014-Sep-28 07:30N 59°23' E 006°03'0 0.0
2014-Sep-28 06:30N 59°23' E 006°03'0 0.0
2014-Sep-28 05:06N 59°23' E 006°03'0 0.0
2014-Sep-28 03:18N 59°23' E 006°03'0 0.0
2014-Sep-28 02:30N 59°23' E 006°03'0 0.0
2014-Sep-28 01:30N 59°23' E 006°03'0 0.0
2014-Sep-27 23:33N 59°23' E 006°03'0 0.0
2014-Sep-27 22:33N 59°23' E 006°03'0 0.0
2014-Sep-27 21:32N 59°23' E 006°03'0 0.0
2014-Sep-27 20:32N 59°23' E 006°03'0 0.0
2014-Sep-27 19:32N 59°23' E 006°03'0 0.0
2014-Sep-27 18:32N 59°23' E 006°03'0 0.0
2014-Sep-27 17:26N 59°23' E 006°03'0 0.0
2014-Sep-27 16:33N 59°23' E 006°03'5 4.8
2014-Sep-27 15:33N 59°20' E 005°55'5 5.3
2014-Sep-27 14:33N 59°17' E 005°46'7 6.8
2014-Sep-27 13:33N 59°12' E 005°37'1010.4
2014-Sep-27 12:33N 59°05' E 005°22'1010.1
2014-Sep-27 11:33N 58°55' E 005°20'9 8.5
2014-Sep-27 10:33N 58°47' E 005°20'18 8.9
2014-Sep-27 08:30N 58°28' E 005°22'8 7.2
2014-Sep-27 07:20N 58°20' E 005°25'185 8.9
2014-Sep-26 10:32N 55°15' E 005°16'2311.5
2014-Sep-26 08:32N 54°52' E 005°11'3511.8
2014-Sep-26 05:33N 54°17' E 005°03'1211.6
2014-Sep-26 04:32N 54°06' E 004°59'1211.7
2014-Sep-26 03:32N 53°54' E 004°55'1111.5
2014-Sep-26 02:33N 53°43' E 004°51'1111.3
2014-Sep-26 01:33N 53°32' E 004°46'3410.9
2014-Sep-25 22:25N 53°01' E 004°23'1010.7
2014-Sep-25 21:28N 52°52' E 004°16'2110.9
2014-Sep-25 19:33N 52°34' E 003°57'1211.5
2014-Sep-25 18:33N 52°23' E 003°53'1211.9
2014-Sep-25 17:33N 52°11' E 003°55'1110.9
2014-Sep-25 16:33N 52°01' E 003°60'1110.6
2014-Sep-25 15:33N 51°55' E 004°14'8 7.5
2014-Sep-25 14:33N 51°51' E 004°24'9 9.1
2014-Sep-25 13:33N 51°48' E 004°38'0 0.0
2014-Sep-25 12:31N 51°48' E 004°38'0 0.0
2014-Sep-25 11:33N 51°48' E 004°38'0 0.0
2014-Sep-25 10:31N 51°48' E 004°38'0 0.0
2014-Sep-25 09:31N 51°48' E 004°38'0 0.0
2014-Sep-25 08:34N 51°48' E 004°38'0 0.0
2014-Sep-25 07:33N 51°48' E 004°38'0 0.0
2014-Sep-25 06:34N 51°48' E 004°38'0 0.0
2014-Sep-25 05:33N 51°48' E 004°38'0 0.0
2014-Sep-25 04:34N 51°48' E 004°38'0 0.0
2014-Sep-25 03:34N 51°48' E 004°38'0 0.0
2014-Sep-25 02:33N 51°48' E 004°38'0 0.0
2014-Sep-25 01:33N 51°48' E 004°38'0 0.0
2014-Sep-25 00:34N 51°48' E 004°38'0 0.0
2014-Sep-24 23:34N 51°48' E 004°38'0 0.0
2014-Sep-24 22:33N 51°48' E 004°38'0 0.0
2014-Sep-24 21:32N 51°48' E 004°38'0 0.0
2014-Sep-24 20:33N 51°48' E 004°38'0 0.0
2014-Sep-24 19:34N 51°48' E 004°38'0 0.0
2014-Sep-24 18:33N 51°48' E 004°38'0 0.0
2014-Sep-24 17:31N 51°48' E 004°38'0 0.0
2014-Sep-24 16:34N 51°48' E 004°38'0 0.0
2014-Sep-24 15:31N 51°48' E 004°38'0 0.0
2014-Sep-24 14:34N 51°48' E 004°38'0 0.0
2014-Sep-24 13:33N 51°48' E 004°38'0 0.0
2014-Sep-24 12:33N 51°48' E 004°38'0 0.0
2014-Sep-24 11:33N 51°48' E 004°38'0 0.0
2014-Sep-24 10:33N 51°48' E 004°38'0 0.0
2014-Sep-24 09:34N 51°48' E 004°38'0 0.0
2014-Sep-24 08:33N 51°48' E 004°38'0 0.0
2014-Sep-24 07:33N 51°48' E 004°38'3 3.3
2014-Sep-24 06:33N 51°49' E 004°34'9 8.9
2014-Sep-24 05:33N 51°52' E 004°20'8 8.0
2014-Sep-24 04:33N 51°57' E 004°10'1010.3
2014-Sep-24 03:33N 51°60' E 003°54'10 7.4
2014-Sep-24 02:14N 52°08' E 003°45'8 9.5
2014-Sep-24 01:20N 52°17' E 003°47'8 9.8
2014-Sep-24 00:30N 52°25' E 003°49'7210.4
2014-Sep-23 17:33N 53°29' E 004°44'9 9.3
2014-Sep-23 16:33N 53°34' E 004°57'10 9.6
2014-Sep-23 15:33N 53°38' E 005°12'1110.7
2014-Sep-23 14:33N 53°41' E 005°29'1111.4
2014-Sep-23 13:33N 53°44' E 005°48'1311.3
2014-Sep-23 12:27N 53°48' E 006°08'  
Track history (hours):
 
Tides and Currents Weather Stations Pressure Air Temp Water Temp Dewpoint Dewpoint Depression Visibility Wind Speed Wind Dir Waves Ship Positions

Humberborg

Last reported at 2014-Oct-03 08:28 UTC. Time now 2014-Nov-01 09:46 UTC.
Position N 53°27' E 014°35'.
Warning: this ship's position is 29 days out of date.

Length 114 m.

Type: Cargo ship. MMSI: 246012000.

Date/timePositionNaut miles runAvg speedWind from/ knotsBaromVisibWave heightAir tempDewpointWater temp
2014-Oct-03 08:28N 53°27' E 014°35'0 0.0
2014-Oct-03 07:31N 53°27' E 014°35'0 0.0
2014-Oct-03 06:31N 53°27' E 014°35'0 0.0
2014-Oct-03 05:31N 53°27' E 014°35'0 0.0
2014-Oct-03 04:31N 53°27' E 014°35'0 0.0
2014-Oct-03 03:34N 53°27' E 014°35'0 0.0
2014-Oct-03 02:33N 53°27' E 014°36'0 0.0
2014-Oct-03 01:33N 53°27' E 014°36'0 0.0
2014-Oct-03 00:33N 53°27' E 014°35'0 0.0
2014-Oct-02 23:33N 53°27' E 014°35'0 0.0
2014-Oct-02 22:33N 53°27' E 014°35'0 0.0
2014-Oct-02 21:33N 53°27' E 014°35'0 0.0
2014-Oct-02 20:09N 53°27' E 014°35'0 0.0
2014-Oct-02 19:33N 53°27' E 014°35'0 0.0
2014-Oct-02 18:33N 53°27' E 014°35'0 0.0
2014-Oct-02 17:33N 53°27' E 014°36'0 0.0
2014-Oct-02 16:33N 53°27' E 014°35'0 0.0
2014-Oct-02 15:33N 53°27' E 014°36'0 0.0
2014-Oct-02 14:33N 53°27' E 014°35'0 0.0
2014-Oct-02 13:33N 53°27' E 014°35'0 0.1
2014-Oct-02 12:33N 53°27' E 014°35'0 0.1
2014-Oct-02 11:33N 53°27' E 014°35'0 0.0
2014-Oct-02 10:27N 53°27' E 014°35'0 0.0
2014-Oct-02 09:33N 53°27' E 014°35'0 0.0
2014-Oct-02 08:33N 53°27' E 014°35'0 0.0
2014-Oct-02 07:33N 53°27' E 014°35'0 0.0
2014-Oct-02 06:33N 53°27' E 014°35'0 0.0
2014-Oct-02 05:33N 53°27' E 014°35'0 0.0
2014-Oct-02 04:33N 53°27' E 014°35'0 0.0
2014-Oct-02 03:33N 53°27' E 014°35'0 0.0
2014-Oct-02 02:33N 53°27' E 014°35'0 0.0
2014-Oct-02 01:33N 53°27' E 014°35'0 0.0
2014-Oct-02 00:33N 53°27' E 014°35'0 0.0
2014-Oct-01 23:33N 53°27' E 014°35'0 0.0
2014-Oct-01 22:33N 53°27' E 014°35'0 0.0
2014-Oct-01 21:33N 53°27' E 014°35'0 0.0
2014-Oct-01 20:33N 53°27' E 014°35'0 0.0
2014-Oct-01 19:34N 53°27' E 014°35'1 0.5
2014-Oct-01 18:34N 53°26' E 014°35'7 6.6
2014-Oct-01 17:34N 53°33' E 014°37'1010.4
2014-Oct-01 16:33N 53°42' E 014°29'1110.9
2014-Oct-01 15:33N 53°51' E 014°17'8 8.1
2014-Oct-01 14:34N 53°59' E 014°16'1111.0
2014-Oct-01 13:32N 54°10' E 014°12'1111.0
2014-Oct-01 12:33N 54°18' E 014°01'1212.0
2014-Oct-01 11:34N 54°28' E 013°50'1211.9
2014-Oct-01 10:34N 54°39' E 013°39'1110.7
2014-Oct-01 09:34N 54°45' E 013°24'1110.8
2014-Oct-01 08:34N 54°44' E 013°06'1211.8
2014-Oct-01 07:33N 54°43' E 012°45'1211.4
2014-Oct-01 06:32N 54°37' E 012°29'1311.4
2014-Oct-01 05:26N 54°27' E 012°14'1112.0
2014-Oct-01 04:32N 54°18' E 012°05'9 9.0
2014-Oct-01 03:33N 54°09' E 012°06'1 0.6
2014-Oct-01 02:31N 54°09' E 012°07'0 0.0
2014-Oct-01 01:19N 54°09' E 012°07'0 0.0
2014-Oct-01 00:28N 54°09' E 012°07'0 0.0
2014-Sep-30 23:28N 54°09' E 012°07'0 0.0
2014-Sep-30 22:31N 54°09' E 012°07'0 0.0
2014-Sep-30 21:31N 54°09' E 012°07'0 0.0
2014-Sep-30 20:31N 54°09' E 012°07'0 0.0
2014-Sep-30 19:25N 54°09' E 012°07'0 0.0
2014-Sep-30 18:31N 54°09' E 012°07'0 0.0
2014-Sep-30 17:31N 54°09' E 012°07'0 0.0
2014-Sep-30 16:28N 54°09' E 012°07'0 0.0
2014-Sep-30 15:31N 54°09' E 012°07'0 0.0
2014-Sep-30 14:31N 54°09' E 012°07'0 0.0
2014-Sep-30 13:31N 54°09' E 012°07'0 0.0
2014-Sep-30 12:28N 54°09' E 012°07'0 0.0
2014-Sep-30 11:31N 54°09' E 012°07'0 0.0
2014-Sep-30 10:28N 54°09' E 012°07'0 0.0
2014-Sep-30 09:31N 54°09' E 012°07'0 0.0
2014-Sep-30 08:28N 54°09' E 012°07'0 0.0
2014-Sep-30 07:33N 54°09' E 012°07'0 0.0
2014-Sep-30 06:33N 54°09' E 012°07'1 0.6
2014-Sep-30 05:32N 54°10' E 012°06'7 6.6
2014-Sep-30 04:33N 54°16' E 012°02'7 7.1
2014-Sep-30 03:34N 54°22' E 012°07'9 8.9
2014-Sep-30 02:33N 54°30' E 012°12'1010.2
2014-Sep-30 01:34N 54°40' E 012°19'1010.2
2014-Sep-30 00:34N 54°48' E 012°29'1110.4
2014-Sep-29 23:33N 54°57' E 012°39'2210.4
2014-Sep-29 21:25N 55°19' E 012°37'910.6
2014-Sep-29 20:34N 55°28' E 012°41'1010.3
2014-Sep-29 19:34N 55°38' E 012°42'1110.7
2014-Sep-29 18:34N 55°49' E 012°42'1110.6
2014-Sep-29 17:34N 55°59' E 012°40'1111.0
2014-Sep-29 16:34N 56°08' E 012°28'1211.5
2014-Sep-29 15:33N 56°15' E 012°11'1110.6
2014-Sep-29 14:34N 56°24' E 012°01'1111.1
2014-Sep-29 13:34N 56°34' E 011°57'1211.5
2014-Sep-29 12:33N 56°46' E 011°52'1212.0
2014-Sep-29 11:33N 56°57' E 011°44'1311.5
2014-Sep-29 10:27N 57°09' E 011°37'1011.4
2014-Sep-29 09:33N 57°18' E 011°30'9 9.1
2014-Sep-29 08:34N 57°27' E 011°25'1211.7
2014-Sep-29 07:33N 57°35' E 011°09'1211.9
2014-Sep-29 06:33N 57°43' E 010°53'1111.0
2014-Sep-29 05:33N 57°48' E 010°34'1212.0
2014-Sep-29 04:34N 57°48' E 010°11'1211.6
2014-Sep-29 03:33N 57°49' E 009°50'1411.8
2014-Sep-29 02:21N 57°49' E 009°23'911.7
2014-Sep-29 01:34N 57°50' E 009°06'8411.3
2014-Sep-28 18:08N 58°04' E 006°29'711.6
2014-Sep-28 17:33N 58°08' E 006°19'2412.1
2014-Sep-28 15:34N 58°24' E 005°46'1211.9
2014-Sep-28 14:34N 58°33' E 005°31'1211.2
2014-Sep-28 13:27N 58°45' E 005°22'1011.1
2014-Sep-28 12:33N 58°55' E 005°20'1010.4
2014-Sep-28 11:33N 59°05' E 005°19'1010.2
2014-Sep-28 10:33N 59°12' E 005°34'1110.7
2014-Sep-28 09:34N 59°19' E 005°50'8 7.3
2014-Sep-28 08:30N 59°23' E 006°03'0 0.0
2014-Sep-28 07:30N 59°23' E 006°03'0 0.0
2014-Sep-28 06:30N 59°23' E 006°03'0 0.0
2014-Sep-28 05:06N 59°23' E 006°03'0 0.0
2014-Sep-28 03:18N 59°23' E 006°03'0 0.0
2014-Sep-28 02:30N 59°23' E 006°03'0 0.0
2014-Sep-28 01:30N 59°23' E 006°03'0 0.0
2014-Sep-27 23:33N 59°23' E 006°03'0 0.0
2014-Sep-27 22:33N 59°23' E 006°03'0 0.0
2014-Sep-27 21:32N 59°23' E 006°03'0 0.0
2014-Sep-27 20:32N 59°23' E 006°03'0 0.0
2014-Sep-27 19:32N 59°23' E 006°03'0 0.0
2014-Sep-27 18:32N 59°23' E 006°03'0 0.0
2014-Sep-27 17:26N 59°23' E 006°03'0 0.0
2014-Sep-27 16:33N 59°23' E 006°03'5 4.8
2014-Sep-27 15:33N 59°20' E 005°55'5 5.3
2014-Sep-27 14:33N 59°17' E 005°46'7 6.8
2014-Sep-27 13:33N 59°12' E 005°37'1010.4
2014-Sep-27 12:33N 59°05' E 005°22'1010.1
2014-Sep-27 11:33N 58°55' E 005°20'9 8.5
2014-Sep-27 10:33N 58°47' E 005°20'18 8.9
2014-Sep-27 08:30N 58°28' E 005°22'8 7.2
2014-Sep-27 07:20N 58°20' E 005°25'185 8.9
2014-Sep-26 10:32N 55°15' E 005°16'2311.5
2014-Sep-26 08:32N 54°52' E 005°11'3511.8
2014-Sep-26 05:33N 54°17' E 005°03'1211.6
2014-Sep-26 04:32N 54°06' E 004°59'1211.7
2014-Sep-26 03:32N 53°54' E 004°55'1111.5
2014-Sep-26 02:33N 53°43' E 004°51'1111.3
2014-Sep-26 01:33N 53°32' E 004°46'3410.9
2014-Sep-25 22:25N 53°01' E 004°23'1010.7
2014-Sep-25 21:28N 52°52' E 004°16'2110.9
2014-Sep-25 19:33N 52°34' E 003°57'1211.5
2014-Sep-25 18:33N 52°23' E 003°53'1211.9
2014-Sep-25 17:33N 52°11' E 003°55'1110.9
2014-Sep-25 16:33N 52°01' E 003°60'1110.6
2014-Sep-25 15:33N 51°55' E 004°14'8 7.5
2014-Sep-25 14:33N 51°51' E 004°24'9 9.1
2014-Sep-25 13:33N 51°48' E 004°38'0 0.0
2014-Sep-25 12:31N 51°48' E 004°38'0 0.0
2014-Sep-25 11:33N 51°48' E 004°38'0 0.0
2014-Sep-25 10:31N 51°48' E 004°38'0 0.0
2014-Sep-25 09:31N 51°48' E 004°38'0 0.0
2014-Sep-25 08:34N 51°48' E 004°38'0 0.0
2014-Sep-25 07:33N 51°48' E 004°38'0 0.0
2014-Sep-25 06:34N 51°48' E 004°38'0 0.0
2014-Sep-25 05:33N 51°48' E 004°38'0 0.0
2014-Sep-25 04:34N 51°48' E 004°38'0 0.0
2014-Sep-25 03:34N 51°48' E 004°38'0 0.0
2014-Sep-25 02:33N 51°48' E 004°38'0 0.0
2014-Sep-25 01:33N 51°48' E 004°38'0 0.0
2014-Sep-25 00:34N 51°48' E 004°38'0 0.0
2014-Sep-24 23:34N 51°48' E 004°38'0 0.0
2014-Sep-24 22:33N 51°48' E 004°38'0 0.0
2014-Sep-24 21:32N 51°48' E 004°38'0 0.0
2014-Sep-24 20:33N 51°48' E 004°38'0 0.0
2014-Sep-24 19:34N 51°48' E 004°38'0 0.0
2014-Sep-24 18:33N 51°48' E 004°38'0 0.0
2014-Sep-24 17:31N 51°48' E 004°38'0 0.0
2014-Sep-24 16:34N 51°48' E 004°38'0 0.0
2014-Sep-24 15:31N 51°48' E 004°38'0 0.0
2014-Sep-24 14:34N 51°48' E 004°38'0 0.0
2014-Sep-24 13:33N 51°48' E 004°38'0 0.0
2014-Sep-24 12:33N 51°48' E 004°38'0 0.0
2014-Sep-24 11:33N 51°48' E 004°38'0 0.0
2014-Sep-24 10:33N 51°48' E 004°38'0 0.0
2014-Sep-24 09:34N 51°48' E 004°38'0 0.0
2014-Sep-24 08:33N 51°48' E 004°38'0 0.0
2014-Sep-24 07:33N 51°48' E 004°38'3 3.3
2014-Sep-24 06:33N 51°49' E 004°34'9 8.9
2014-Sep-24 05:33N 51°52' E 004°20'8 8.0
2014-Sep-24 04:33N 51°57' E 004°10'1010.3
2014-Sep-24 03:33N 51°60' E 003°54'10 7.4
2014-Sep-24 02:14N 52°08' E 003°45'8 9.5
2014-Sep-24 01:20N 52°17' E 003°47'8 9.8
2014-Sep-24 00:30N 52°25' E 003°49'7210.4
2014-Sep-23 17:33N 53°29' E 004°44'9 9.3
2014-Sep-23 16:33N 53°34' E 004°57'10 9.6
2014-Sep-23 15:33N 53°38' E 005°12'1110.7
2014-Sep-23 14:33N 53°41' E 005°29'1111.4
2014-Sep-23 13:33N 53°44' E 005°48'1311.3
2014-Sep-23 12:27N 53°48' E 006°08'  

Dump ship's entire track history